Doylestown, PA

4:05 AM EST on December 11, 2019 (GMT -0500)
Doylestown

Weather History for KDYL - October, 2019

Change the Weather History Date:

Sunday, October 27, 2019

  Actual Average (WUND) Record (WUND)
Temperature  
Mean Temperature 64 °F -  
Max Temperature 75 °F - - (-1)
Min Temperature 54 °F - - (-1)
Degree Days  
Heating Degree Days 2    
Growing Degree Days 14 (Base 50)    
Moisture  
Dew Point 57 °F    
Average Humidity 81    
Maximum Humidity 94    
Minimum Humidity 54    
Precipitation  
Precipitation 0.77 in - - ()
Sea Level Pressure  
Sea Level Pressure 29.87 in    
Wind  
Wind Speed 4 mph (West)    
Max Wind Speed 13 mph    
Max Gust Speed 23 mph    
Visibility 9 miles    
Events Rain    
Averages and records for this station are not official NWS values.
T = Trace of Precipitation, MM = Missing Value Source: NWS Daily Summary

Daily Weather History Graph

Daily Weather History Graph

Search for Another Location

Airport or City:

Astronomy

Oct. 27, 2019 Rise Set
Actual Time 7:24 AM EDT 6:03 PM EDT
Civil Twilight 6:56 AM EDT 6:31 PM EDT
Nautical Twilight 6:24 AM EDT 7:03 PM EDT
Astronomical Twilight 5:52 AM EDT 7:35 PM EDT
Moon 6:29 AM EDT (10/27) 6:12 PM EDT (10/27)
Length of Visible Light 11h 35m
Length of Day
10h 39m
Waning Crescent, 0% of the Moon is Illuminated
Oct 27
Waning Crescent
Oct 27
New
Nov 4
First Quarter
Nov 12
Full
Nov 19
Last Quarter

Hourly Weather History & Observations

Time (EDT) Temp. Dew Point Humidity Pressure Visibility Wind Dir Wind Speed Gust Speed Precip Events Conditions
12:54 AM 54.0 °F 46.9 °F 77% 30.16 in 10.0 mi Variable 3.5 mph - N/A   Partly Cloudy
1:54 AM 54.0 °F 48.0 °F 80% 30.16 in 10.0 mi Calm Calm - N/A   Partly Cloudy
2:54 AM 55.0 °F 48.0 °F 77% 30.12 in 10.0 mi Variable 3.5 mph - N/A   Overcast
3:54 AM 55.0 °F 48.9 °F 80% 30.08 in 10.0 mi Calm Calm - N/A   Overcast
4:54 AM 55.9 °F 50.0 °F 80% 30.05 in 10.0 mi Variable 5.8 mph - N/A   Overcast
5:27 AM 55.9 °F 51.1 °F 84% 30.04 in 10.0 mi Calm Calm - 0.00 in   Overcast
5:54 AM 55.9 °F 52.0 °F 87% 30.02 in 10.0 mi Calm Calm - 0.00 in Rain Light Rain
6:19 AM 55.9 °F 53.1 °F 90% 29.99 in 10.0 mi East 3.5 mph - 0.00 in Rain Light Rain
6:31 AM 57.0 °F 54.0 °F 89% 29.98 in 9.0 mi Calm Calm - 0.00 in Rain Rain
6:54 AM 57.0 °F 54.0 °F 89% 29.98 in 7.0 mi Calm Calm - N/A Rain Rain
7:03 AM 57.0 °F 55.0 °F 93% 29.97 in 8.0 mi Variable 3.5 mph - N/A Rain Rain
7:54 AM 57.9 °F 55.9 °F 93% 29.93 in 10.0 mi North - - N/A Rain Light Rain
8:54 AM 60.1 °F 57.9 °F 93% 29.90 in 10.0 mi Variable 3.5 mph - N/A   Overcast
9:32 AM 61.0 °F 59.0 °F 93% 29.87 in 5.0 mi Variable 4.6 mph - 0.02 in Rain Rain
9:44 AM 62.1 °F 59.0 °F 90% 29.87 in 5.0 mi SE 8.1 mph - 0.03 in Rain Rain
9:54 AM 62.1 °F 59.0 °F 90% 29.86 in 5.0 mi North - - 0.04 in Rain Rain
10:54 AM 63.0 °F 61.0 °F 93% 29.77 in 5.0 mi SSE 8.1 mph - 0.09 in Rain Rain
11:54 AM 66.0 °F 63.0 °F 90% 29.76 in 10.0 mi Variable 6.9 mph - 0.17 in Rain Light Rain
12:32 PM 66.0 °F 64.0 °F 93% 29.75 in 1.8 mi SW 5.8 mph 18.4 mph 0.12 in Rain Heavy Rain
12:39 PM 66.0 °F 64.0 °F 93% 29.75 in 2.0 mi WSW 6.9 mph - 0.14 in Rain Heavy Rain
12:54 PM 68.0 °F 64.9 °F 90% 29.74 in 9.0 mi Variable 4.6 mph - 0.19 in Rain Light Rain
1:50 PM 66.2 °F 64.4 °F 94% 29.72 in 10.0 mi SW 4.6 mph - 0.17 in   Overcast
1:54 PM 68.0 °F 64.0 °F 87% 29.71 in 10.0 mi WSW 4.6 mph - 0.18 in   Overcast
2:12 PM 68.0 °F 64.9 °F 90% 29.71 in 10.0 mi SW 6.9 mph - 0.04 in   Overcast
2:35 PM 70.0 °F 64.9 °F 84% 29.70 in 10.0 mi Variable 4.6 mph - 0.08 in   Overcast
2:45 PM 71.1 °F 64.9 °F 81% 29.70 in 10.0 mi Variable 6.9 mph - 0.10 in   Mostly Cloudy
2:54 PM 71.1 °F 64.9 °F 81% 29.69 in 10.0 mi West 8.1 mph - 0.10 in   Mostly Cloudy
3:04 PM 71.1 °F 64.0 °F 78% 29.70 in 10.0 mi West 12.7 mph 19.6 mph N/A   Mostly Cloudy
3:12 PM 71.1 °F 63.0 °F 75% 29.70 in 10.0 mi West 11.5 mph 19.6 mph N/A   Partly Cloudy
3:54 PM 73.9 °F 62.1 °F 66% 29.71 in 10.0 mi WNW 9.2 mph - N/A   Scattered Clouds
4:54 PM 73.0 °F 59.0 °F 61% 29.73 in 10.0 mi West 5.8 mph - N/A   Mostly Cloudy
5:54 PM 71.1 °F 57.9 °F 63% 29.76 in 10.0 mi West 5.8 mph - N/A   Partly Cloudy
6:54 PM 69.1 °F 52.0 °F 54% 29.81 in 10.0 mi Variable 5.8 mph - N/A   Clear
7:54 PM 66.0 °F 51.1 °F 59% 29.84 in 10.0 mi West 9.2 mph - N/A   Clear
8:54 PM 64.0 °F 48.9 °F 58% 29.88 in 10.0 mi WNW 8.1 mph - N/A   Clear
9:54 PM 62.1 °F 48.9 °F 62% 29.91 in 10.0 mi WNW 8.1 mph - N/A   Clear
10:54 PM 61.0 °F 46.9 °F 60% 29.94 in 10.0 mi WNW 11.5 mph 23.0 mph N/A   Clear
11:54 PM 57.9 °F 46.0 °F 65% 29.94 in 10.0 mi WNW 6.9 mph - N/A   Clear